When you browse on this site, cookies collect data to enhance your experience and personalize the content and advertising you see.
Visit our Privacy Policy to learn more. By continuing to use the site, you agree to this use of cookies and data.
  • In Austria
  • List of Countries
  • For 7 days
  • Water Temperature
  • Weather Map
  • News
  • Weather Widgets
  • user-avatar
    Login

    Hourly Weather Duesseldorf

    Today, 2 June, Tuesday

    Time Temperature Precipitation Wind Pressure Humidity
    00:00 +18°C° 0 mm 2 mps 762 mmHg 70%
    01:00 +17°C° 0 mm 2 mps 762 mmHg 72%
    02:00 +16°C° 0 mm 2 mps 762 mmHg 74%
    03:00 +16°C° 0 mm 2 mps 761 mmHg 76%
    04:00 +17°C° 0 mm 2 mps 761 mmHg 72%
    05:00 +18°C° 0 mm 2 mps 761 mmHg 69%
    06:00 +19°C° 0 mm 2 mps 761 mmHg 65%
    07:00 +20°C° 0 mm 2 mps 761 mmHg 59%
    08:00 +23°C° 0 mm 1 mps 761 mmHg 53%
    09:00 +25°C° 0 mm 1 mps 760 mmHg 48%
    10:00 +26°C° 0 mm 1 mps 760 mmHg 43%
    11:00 +28°C° 0 mm 1 mps 760 mmHg 38%
    12:00 +29°C° 0 mm 1 mps 759 mmHg 33%
    13:00 +29°C° 0 mm 2 mps 758 mmHg 33%
    14:00 +29°C° 0 mm 2 mps 758 mmHg 34%
    15:00 +29°C° 0 mm 2 mps 757 mmHg 34%
    16:00 +28°C° 0 mm 2 mps 757 mmHg 39%
    17:00 +27°C° 0 mm 1 mps 756 mmHg 44%
    18:00 +26°C° 0 mm 1 mps 756 mmHg 49%
    19:00 +24°C° 0 mm 1 mps 756 mmHg 54%
    20:00 +23°C° 0 mm 1 mps 756 mmHg 60%
    21:00 +20°C° 0 mm 2 mps 756 mmHg 66%
    22:00 +19°C° 0.1 mm 2 mps 755 mmHg 69%
    23:00 +18°C° 0.1 mm 2 mps 755 mmHg 73%

    Tomorrow, 3 June, Wednesday

    Time Temperature Precipitation Wind Pressure Humidity
    00:00 +18°C° 0.1 mm 2 mps 754 mmHg 77%
    01:00 +17°C° 0.2 mm 2 mps 754 mmHg 79%
    02:00 +16°C° 0.2 mm 2 mps 753 mmHg 81%
    03:00 +15°C° 0.2 mm 2 mps 753 mmHg 83%
    04:00 +16°C° 0 mm 2 mps 753 mmHg 80%
    05:00 +16°C° 0 mm 2 mps 752 mmHg 78%
    06:00 +17°C° 0 mm 2 mps 752 mmHg 76%
    07:00 +18°C° 0 mm 2 mps 752 mmHg 68%
    08:00 +20°C° 0 mm 2 mps 751 mmHg 60%
    09:00 +21°C° 0 mm 2 mps 751 mmHg 52%
    10:00 +23°C° 0 mm 2 mps 750 mmHg 49%
    11:00 +25°C° 0 mm 2 mps 750 mmHg 45%
    12:00 +26°C° 0 mm 3 mps 749 mmHg 42%
    13:00 +26°C° 0 mm 3 mps 749 mmHg 42%
    14:00 +26°C° 0 mm 2 mps 748 mmHg 42%
    15:00 +26°C° 0 mm 2 mps 748 mmHg 42%
    16:00 +25°C° 0 mm 2 mps 748 mmHg 46%
    17:00 +24°C° 0 mm 2 mps 747 mmHg 50%
    18:00 +23°C° 0 mm 2 mps 747 mmHg 54%
    19:00 +21°C° 0 mm 2 mps 747 mmHg 58%
    20:00 +20°C° 0 mm 2 mps 747 mmHg 62%
    21:00 +19°C° 0 mm 2 mps 747 mmHg 66%
    22:00 +18°C° 0 mm 2 mps 746 mmHg 70%
    23:00 +17°C° 0 mm 2 mps 746 mmHg 75%

    Day after tomorrow, 4 June, Thursday

    Time Temperature Precipitation Wind Pressure Humidity
    00:00 +17°C° 0 mm 2 mps 746 mmHg 79%
    01:00 +16°C° 0.2 mm 2 mps 745 mmHg 82%
    02:00 +16°C° 0.2 mm 2 mps 745 mmHg 84%
    03:00 +16°C° 0.2 mm 3 mps 745 mmHg 87%
    04:00 +16°C° 0.1 mm 3 mps 744 mmHg 86%
    05:00 +16°C° 0.1 mm 3 mps 744 mmHg 85%
    06:00 +16°C° 0.1 mm 3 mps 744 mmHg 84%
    07:00 +16°C° 0 mm 3 mps 744 mmHg 83%
    08:00 +16°C° 0 mm 3 mps 744 mmHg 81%
    09:00 +15°C° 0 mm 4 mps 743 mmHg 79%
    10:00 +15°C° 0.6 mm 4 mps 743 mmHg 79%
    11:00 +15°C° 0.6 mm 5 mps 743 mmHg 79%
    12:00 +15°C° 0.6 mm 6 mps 743 mmHg 79%
    13:00 +14°C° 0.3 mm 5 mps 743 mmHg 81%
    14:00 +13°C° 0.3 mm 5 mps 743 mmHg 83%
    15:00 +13°C° 0.3 mm 5 mps 743 mmHg 84%
    16:00 +12°C° 0.1 mm 4 mps 744 mmHg 83%
    17:00 +12°C° 0.1 mm 4 mps 744 mmHg 81%
    18:00 +12°C° 0.1 mm 4 mps 744 mmHg 80%
    19:00 +11°C° 0.1 mm 4 mps 745 mmHg 79%
    20:00 +11°C° 0.1 mm 3 mps 745 mmHg 79%
    21:00 +10°C° 0.1 mm 3 mps 745 mmHg 79%
    22:00 +9°C° 0 mm 3 mps 745 mmHg 79%
    23:00 +9°C° 0 mm 3 mps 745 mmHg 80%

    5 June, Friday

    Time Temperature Precipitation Wind Pressure Humidity
    00:00 +8°C° 0 mm 3 mps 745 mmHg 81%
    01:00 +8°C° 0 mm 3 mps 745 mmHg 83%
    02:00 +7°C° 0 mm 3 mps 745 mmHg 84%
    03:00 +7°C° 0 mm 3 mps 745 mmHg 85%
    04:00 +8°C° 0 mm 3 mps 745 mmHg 82%
    05:00 +9°C° 0 mm 3 mps 745 mmHg 79%
    06:00 +10°C° 0 mm 3 mps 745 mmHg 76%
    07:00 +10°C° 0.7 mm 3 mps 745 mmHg 77%
    08:00 +10°C° 0.7 mm 3 mps 745 mmHg 79%
    09:00 +10°C° 0.7 mm 3 mps 745 mmHg 81%
    10:00 +11°C° 0.6 mm 4 mps 745 mmHg 75%
    11:00 +12°C° 0.6 mm 4 mps 745 mmHg 70%
    12:00 +13°C° 0.6 mm 4 mps 745 mmHg 64%
    13:00 +14°C° 0.3 mm 5 mps 745 mmHg 59%
    14:00 +15°C° 0.3 mm 5 mps 745 mmHg 54%
    15:00 +16°C° 0.3 mm 5 mps 745 mmHg 49%
    16:00 +15°C° 0 mm 5 mps 746 mmHg 50%
    17:00 +15°C° 0 mm 5 mps 746 mmHg 51%
    18:00 +14°C° 0 mm 4 mps 746 mmHg 53%
    19:00 +13°C° 0 mm 3 mps 746 mmHg 55%
    20:00 +12°C° 0 mm 2 mps 746 mmHg 57%
    21:00 +10°C° 0 mm 2 mps 746 mmHg 60%
    22:00 +10°C° 0.2 mm 3 mps 746 mmHg 66%
    23:00 +10°C° 0.2 mm 4 mps 746 mmHg 72%

    6 June, Saturday

    Time Temperature Precipitation Wind Pressure Humidity
    00:00 +9°C° 0.2 mm 5 mps 746 mmHg 78%
    01:00 +9°C° 0.5 mm 5 mps 746 mmHg 81%
    02:00 +9°C° 0.5 mm 5 mps 746 mmHg 83%
    03:00 +8°C° 0.5 mm 5 mps 746 mmHg 86%
    04:00 +9°C° 0.1 mm 5 mps 746 mmHg 83%
    05:00 +10°C° 0.1 mm 5 mps 746 mmHg 80%
    06:00 +10°C° 0.1 mm 5 mps 746 mmHg 77%
    07:00 +11°C° 0.3 mm 6 mps 747 mmHg 72%
    08:00 +13°C° 0.3 mm 6 mps 747 mmHg 67%
    09:00 +14°C° 0.3 mm 6 mps 747 mmHg 61%
    10:00 +15°C° 0.2 mm 6 mps 747 mmHg 56%
    11:00 +16°C° 0.2 mm 7 mps 747 mmHg 51%
    12:00 +16°C° 0.2 mm 7 mps 748 mmHg 45%
    13:00 +16°C° 0 mm 7 mps 748 mmHg 44%
    14:00 +16°C° 0 mm 7 mps 748 mmHg 43%
    15:00 +16°C° 0 mm 6 mps 748 mmHg 42%
    16:00 +15°C° 0 mm 6 mps 749 mmHg 45%
    17:00 +14°C° 0 mm 5 mps 749 mmHg 48%
    18:00 +14°C° 0 mm 5 mps 749 mmHg 51%
    19:00 +12°C° 0 mm 4 mps 750 mmHg 54%
    20:00 +11°C° 0 mm 4 mps 750 mmHg 57%
    21:00 +10°C° 0 mm 3 mps 751 mmHg 61%
    22:00 +10°C° 0 mm 3 mps 751 mmHg 63%
    23:00 +9°C° 0 mm 3 mps 751 mmHg 66%

    7 June, Sunday

    Time Temperature Precipitation Wind Pressure Humidity
    00:00 +9°C° 0 mm 3 mps 751 mmHg 69%
    01:00 +8°C° 0 mm 3 mps 752 mmHg 72%
    02:00 +7°C° 0 mm 4 mps 752 mmHg 75%
    03:00 +6°C° 0 mm 4 mps 752 mmHg 78%
    04:00 +7°C° 0 mm 4 mps 752 mmHg 75%
    05:00 +8°C° 0 mm 4 mps 753 mmHg 71%
    06:00 +10°C° 0 mm 4 mps 753 mmHg 67%
    07:00 +10°C° 0 mm 5 mps 753 mmHg 62%
    08:00 +12°C° 0 mm 5 mps 753 mmHg 56%
    09:00 +14°C° 0 mm 5 mps 754 mmHg 50%
    10:00 +14°C° 0 mm 5 mps 754 mmHg 48%
    11:00 +14°C° 0 mm 5 mps 754 mmHg 46%
    12:00 +15°C° 0 mm 5 mps 754 mmHg 45%
    13:00 +15°C° 0 mm 5 mps 754 mmHg 45%
    14:00 +15°C° 0 mm 5 mps 755 mmHg 44%
    15:00 +15°C° 0 mm 5 mps 755 mmHg 44%
    16:00 +15°C° 0 mm 4 mps 755 mmHg 48%
    17:00 +15°C° 0 mm 4 mps 755 mmHg 51%
    18:00 +14°C° 0 mm 3 mps 756 mmHg 55%
    19:00 +13°C° 0 mm 3 mps 756 mmHg 59%
    20:00 +12°C° 0 mm 2 mps 757 mmHg 63%
    21:00 +10°C° 0 mm 2 mps 757 mmHg 67%
    22:00 +10°C° 0 mm 2 mps 757 mmHg 68%
    23:00 +9°C° 0 mm 2 mps 757 mmHg 70%
    Show more